Terminal Aerodrome Forecast
Issued by NWS

Home | Current Version | Previous Version | Text Only | Print | Product List | Glossary On
Versions: 1 2 3 4 5 6 7 8 9 10 11 12 13 14 15 16 17 18 19 20 21 22 23 24 25 26 27 28 29 30 31 32 33 34 35 36 37 38 39 40 41 42 43 44
410
FTUS44 KHGX 261137
TAFCXO
TAF
KCXO 261137Z 2612/2712 VRB02KT 2SM BR OVC002
      TEMPO 2612/2614 1/2SM FG VV002
     FM261400 VRB02KT P6SM VCSH SCT008 BKN030
     FM261700 VRB03KT P6SM VCTS SCT040CB
      TEMPO 2618/2622 VRB10G20KT 3SM TSRA BR BKN035CB
     FM270100 VRB04KT P6SM FEW035 BKN120
     FM270900 VRB04KT 4SM BR SCT003=

USA.gov is the U.S. government's official web portal to all federal, state and local government web resources and services.